User: anonymous   Login
Location: Caltech
(34.1382°N, 118.1253°W)
Time: 22:31:17
(UTC-07:00)
Language:

Iridium 91 - Orbit

View from above orbital plane
View from above orbital plane
View from above satellite
View from above satellite

Ground track
Ground track

The orbit data is extracted from the following two-line orbital elements,

1 27372U 02005A   17230.18936306  .00000038  00000-0  63783-5 0  9990
2 27372  86.3932 261.2398 0002042 103.6077 298.4160 14.34222025820518
Epoch (UTC): 18 August 2017 04:32:40
Eccentricity: 0.0002042
inclination: 86.3932°
perigee height: 776 km
apogee height: 779 km
right ascension of ascending node: 261.2398°
argument of perigee: 103.6077°
revolutions per day: 14.34222025
mean anomaly at epoch: 298.4160°
orbit number at epoch: 82051

The dashed part of the orbit path shows where the satellite is in the earth's shadow,  

DLR